When you browse on this site, cookies collect data to enhance your experience and personalize the content and advertising you see.
Visit our Privacy Policy to learn more. By continuing to use the site, you agree to this use of cookies and data.
  • En España
  • Lista de países
  • Para 7 días
  • Temperatura del agua
  • El tiempo en el mapa
  • Informadores
  • user-avatar
    Iniciar sesión

    Tiempo cada hora Lautaro

    Hoy, 29 Enero, Miércoles

    Tiempo Temperatura Precipitaciones Viento Presión Humedad
    00:00 +7°C° 0 mm 1 mps 739 mmHg 92%
    01:00 +7°C° 0 mm 1 mps 740 mmHg 94%
    02:00 +6°C° 0 mm 1 mps 740 mmHg 94%
    03:00 +6°C° 0 mm 1 mps 740 mmHg 94%
    04:00 +6°C° 0 mm 1 mps 740 mmHg 95%
    05:00 +7°C° 0 mm 1 mps 740 mmHg 88%
    06:00 +9°C° 0 mm 1 mps 740 mmHg 80%
    07:00 +9°C° 0 mm 2 mps 740 mmHg 73%
    08:00 +13°C° 0 mm 2 mps 740 mmHg 61%
    09:00 +16°C° 0 mm 3 mps 740 mmHg 49%
    10:00 +18°C° 0 mm 3 mps 740 mmHg 37%
    11:00 +20°C° 0 mm 4 mps 740 mmHg 33%
    12:00 +22°C° 0 mm 4 mps 740 mmHg 28%
    13:00 +25°C° 0 mm 4 mps 740 mmHg 23%
    14:00 +25°C° 0 mm 4 mps 740 mmHg 25%
    15:00 +25°C° 0 mm 4 mps 740 mmHg 27%
    16:00 +23°C° 0 mm 4 mps 740 mmHg 29%
    17:00 +20°C° 0 mm 4 mps 740 mmHg 39%
    18:00 +17°C° 0 mm 3 mps 740 mmHg 49%
    19:00 +15°C° 0 mm 2 mps 740 mmHg 59%
    20:00 +13°C° 0 mm 2 mps 740 mmHg 69%
    21:00 +11°C° 0 mm 1 mps 740 mmHg 80%
    22:00 +9°C° 0 mm 1 mps 740 mmHg 90%
    23:00 +8°C° 0 mm 1 mps 740 mmHg 91%

    Mañana, 30 Enero, Jueves

    Tiempo Temperatura Precipitaciones Viento Presión Humedad
    00:00 +8°C° 0 mm 1 mps 740 mmHg 92%
    01:00 +7°C° 0 mm 1 mps 740 mmHg 93%
    02:00 +7°C° 0 mm 1 mps 740 mmHg 92%
    03:00 +5°C° 0 mm 0 mps 739 mmHg 91%
    04:00 +5°C° 0 mm 0 mps 739 mmHg 91%
    05:00 +8°C° 0 mm 1 mps 739 mmHg 81%
    06:00 +10°C° 0 mm 1 mps 739 mmHg 71%
    07:00 +12°C° 0 mm 1 mps 739 mmHg 61%
    08:00 +15°C° 0 mm 2 mps 739 mmHg 51%
    09:00 +18°C° 0 mm 2 mps 739 mmHg 40%
    10:00 +23°C° 0 mm 2 mps 739 mmHg 30%
    11:00 +25°C° 0 mm 3 mps 739 mmHg 25%
    12:00 +27°C° 0 mm 3 mps 739 mmHg 21%
    13:00 +29°C° 0 mm 4 mps 739 mmHg 17%
    14:00 +29°C° 0 mm 4 mps 738 mmHg 21%
    15:00 +28°C° 0 mm 4 mps 738 mmHg 26%
    16:00 +28°C° 0 mm 5 mps 738 mmHg 30%
    17:00 +25°C° 0 mm 4 mps 738 mmHg 40%
    18:00 +20°C° 0 mm 3 mps 738 mmHg 51%
    19:00 +17°C° 0 mm 2 mps 739 mmHg 61%
    20:00 +15°C° 0 mm 2 mps 739 mmHg 73%
    21:00 +13°C° 0 mm 1 mps 739 mmHg 84%
    22:00 +11°C° 0 mm 0 mps 739 mmHg 95%
    23:00 +11°C° 0 mm 0 mps 739 mmHg 96%

    Pasado mañana, 31 Enero, Viernes

    Tiempo Temperatura Precipitaciones Viento Presión Humedad
    00:00 +11°C° 0 mm 0 mps 739 mmHg 96%
    01:00 +11°C° 0 mm 0 mps 739 mmHg 97%
    02:00 +11°C° 0 mm 0 mps 739 mmHg 96%
    03:00 +12°C° 0 mm 1 mps 739 mmHg 96%
    04:00 +12°C° 0 mm 1 mps 738 mmHg 96%
    05:00 +13°C° 0 mm 1 mps 738 mmHg 91%
    06:00 +14°C° 0 mm 1 mps 738 mmHg 86%
    07:00 +15°C° 0 mm 1 mps 738 mmHg 81%
    08:00 +19°C° 0 mm 1 mps 738 mmHg 70%
    09:00 +23°C° 0 mm 2 mps 738 mmHg 58%
    10:00 +26°C° 0 mm 2 mps 738 mmHg 46%
    11:00 +28°C° 0 mm 3 mps 738 mmHg 42%
    12:00 +29°C° 0 mm 3 mps 738 mmHg 37%
    13:00 +31°C° 0 mm 3 mps 738 mmHg 33%
    14:00 +30°C° 0 mm 4 mps 737 mmHg 33%
    15:00 +30°C° 0 mm 4 mps 737 mmHg 34%
    16:00 +29°C° 0 mm 5 mps 737 mmHg 35%
    17:00 +26°C° 0 mm 4 mps 737 mmHg 46%
    18:00 +22°C° 0 mm 3 mps 737 mmHg 58%
    19:00 +19°C° 0 mm 2 mps 737 mmHg 70%
    20:00 +18°C° 0 mm 2 mps 737 mmHg 78%
    21:00 +16°C° 0 mm 1 mps 737 mmHg 87%
    22:00 +14°C° 0 mm 1 mps 737 mmHg 96%
    23:00 +13°C° 0 mm 0 mps 737 mmHg 96%

    1 Febrero, Sábado

    Tiempo Temperatura Precipitaciones Viento Presión Humedad
    00:00 +13°C° 0 mm 0 mps 737 mmHg 97%
    01:00 +12°C° 0 mm 0 mps 737 mmHg 97%
    02:00 +12°C° 0 mm 0 mps 737 mmHg 97%
    03:00 +12°C° 0 mm 0 mps 737 mmHg 97%
    04:00 +12°C° 0 mm 0 mps 737 mmHg 97%
    05:00 +13°C° 0 mm 0 mps 737 mmHg 91%
    06:00 +15°C° 0 mm 1 mps 737 mmHg 86%
    07:00 +16°C° 0 mm 1 mps 737 mmHg 81%
    08:00 +19°C° 0 mm 2 mps 737 mmHg 67%
    09:00 +23°C° 0 mm 2 mps 736 mmHg 54%
    10:00 +26°C° 0 mm 3 mps 736 mmHg 41%
    11:00 +27°C° 0 mm 4 mps 736 mmHg 42%
    12:00 +27°C° 0 mm 5 mps 736 mmHg 43%
    13:00 +27°C° 0 mm 5 mps 736 mmHg 44%
    14:00 +25°C° 0.2 mm 5 mps 737 mmHg 55%
    15:00 +21°C° 0.2 mm 5 mps 737 mmHg 66%
    16:00 +17°C° 0.2 mm 5 mps 737 mmHg 77%
    17:00 +17°C° 0 mm 4 mps 737 mmHg 79%
    18:00 +16°C° 0 mm 2 mps 738 mmHg 81%
    19:00 +15°C° 0 mm 1 mps 738 mmHg 83%
    20:00 +14°C° 0 mm 1 mps 738 mmHg 86%
    21:00 +12°C° 0 mm 1 mps 738 mmHg 90%
    22:00 +10°C° 0 mm 0 mps 738 mmHg 94%
    23:00 +10°C° 0 mm 0 mps 738 mmHg 94%

    2 Febrero, Domingo

    Tiempo Temperatura Precipitaciones Viento Presión Humedad
    00:00 +9°C° 0 mm 0 mps 738 mmHg 94%
    01:00 +8°C° 0 mm 0 mps 738 mmHg 95%
    02:00 +8°C° 0 mm 0 mps 738 mmHg 95%
    03:00 +8°C° 0 mm 0 mps 737 mmHg 95%
    04:00 +7°C° 0 mm 0 mps 737 mmHg 96%
    05:00 +9°C° 0 mm 0 mps 737 mmHg 90%
    06:00 +11°C° 0 mm 0 mps 737 mmHg 83%
    07:00 +12°C° 0 mm 0 mps 737 mmHg 77%
    08:00 +18°C° 0 mm 1 mps 737 mmHg 63%
    09:00 +21°C° 0 mm 1 mps 737 mmHg 49%
    10:00 +25°C° 0 mm 1 mps 737 mmHg 35%
    11:00 +26°C° 0 mm 2 mps 737 mmHg 30%
    12:00 +27°C° 0 mm 2 mps 737 mmHg 26%
    13:00 +28°C° 0 mm 3 mps 736 mmHg 21%
    14:00 +27°C° 0 mm 4 mps 736 mmHg 24%
    15:00 +26°C° 0 mm 4 mps 736 mmHg 27%
    16:00 +25°C° 0 mm 5 mps 736 mmHg 30%
    17:00 +21°C° 0 mm 3 mps 736 mmHg 38%
    18:00 +18°C° 0 mm 2 mps 737 mmHg 47%
    19:00 +15°C° 0 mm 1 mps 737 mmHg 55%
    20:00 +14°C° 0 mm 1 mps 737 mmHg 64%
    21:00 +12°C° 0 mm 1 mps 738 mmHg 72%
    22:00 +10°C° 0 mm 1 mps 738 mmHg 80%
    23:00 +10°C° 0 mm 1 mps 738 mmHg 81%

    3 Febrero, Lunes

    Tiempo Temperatura Precipitaciones Viento Presión Humedad
    00:00 +9°C° 0 mm 1 mps 738 mmHg 83%
    01:00 +8°C° 0 mm 2 mps 737 mmHg 84%
    02:00 +7°C° 0 mm 2 mps 737 mmHg 85%
    03:00 +7°C° 0 mm 2 mps 737 mmHg 87%
    04:00 +7°C° 0 mm 2 mps 737 mmHg 88%
    05:00 +8°C° 0 mm 2 mps 737 mmHg 83%
    06:00 +10°C° 0 mm 3 mps 736 mmHg 77%
    07:00 +12°C° 0 mm 3 mps 736 mmHg 71%
    08:00 +14°C° 0 mm 4 mps 736 mmHg 62%
    09:00 +18°C° 0 mm 4 mps 736 mmHg 52%
    10:00 +20°C° 0 mm 5 mps 736 mmHg 42%
    11:00 +22°C° 0 mm 5 mps 735 mmHg 40%
    12:00 +23°C° 0 mm 5 mps 735 mmHg 37%
    13:00 +24°C° 0 mm 6 mps 735 mmHg 34%
    14:00 +20°C° 0.6 mm 5 mps 735 mmHg 51%
    15:00 +14°C° 0.6 mm 5 mps 735 mmHg 68%
    16:00 +9°C° 0.6 mm 5 mps 736 mmHg 85%
    17:00 +10°C° 3.6 mm 4 mps 736 mmHg 89%
    18:00 +9°C° 3.6 mm 3 mps 737 mmHg 92%
    19:00 +8°C° 3.6 mm 2 mps 738 mmHg 96%
    20:00 +8°C° 0.6 mm 2 mps 739 mmHg 95%
    21:00 +8°C° 0.6 mm 2 mps 740 mmHg 94%
    22:00 +8°C° 0.6 mm 2 mps 741 mmHg 94%
    23:00 +8°C° 0 mm 2 mps 741 mmHg 94%
    Mostrar más